Location: Bu�n Treun
(12.1333°N, 108.3167°E)
Time: 13:13:19
(UTC+00:00)

Cosmos 1455 - Pass Details

Date: 13 July 2020
Orbit: 500 x 521 km, 82.5° (Epoch: 06 August)

Event Time Altitude Azimuth Distance (km) Brightness Sun altitude
Rises 13:19:22 0° 344° (NNW) 2,637 6.5 -27.7°
Reaches altitude 10° 13:21:35 10° 336° (NNW) 1,750 5.6 -28.2°
Enters shadow 13:24:13 32° 302° (WNW) 899 3.9 -28.7°
